Location: Te Maire Creek
(41.1333°S, 175.9167°E)
Time: 21:23:10
(UTC+00:00)

Gblst 52 Del rocket - Pass Details

Date: 19 May 2024
Orbit: 805 x 1364 km, 51.5° (Epoch: 21 June)

Event Time Altitude Azimuth Distance (km) Brightness Sun altitude
Exits shadow 17:59:08 - 305° (NW) 2,744 6.5 -15.5°
Reaches altitude 10° 17:59:29 10° 305° (NW) 2,613 6.4 -15.4°
Maximum altitude 18:05:33 85° 216° (SW) 864 4.2 -14.3°
Drops below altitude 10° 18:11:10 10° 126° (SE) 2,423 7.1 -13.3°
Sets 18:13:35 0° 125° (SE) 3,346 7.9 -12.9°
